Corsicana, TX

9:12 PM CDT on March 24, 2017 (GMT -0500)
Campbell-Corsicana Municipal

Weather History for KCRS - February, 2013

Change the Weather History Date:

Friday, February 15, 2013

  Actual Average (KACT) Record (KACT)
Temperature  
Mean Temperature 46 °F -  
Max Temperature 52 °F 61 °F 83 °F (1957)
Min Temperature 37 °F 40 °F 18 °F (1909)
Degree Days  
Heating Degree Days 20    
Moisture  
Dew Point 32 °F    
Average Humidity 56    
Maximum Humidity 73    
Minimum Humidity 39    
Precipitation  
Precipitation 0.00 in - - ()
Sea Level Pressure  
Sea Level Pressure 30.28 in    
Wind  
Wind Speed 8 mph (North)    
Max Wind Speed 16 mph    
Max Gust Speed 26 mph    
Visibility 10 miles    
Events      
Averages and records for this station are not official NWS values.
T = Trace of Precipitation, MM = Missing Value Source: NWS Daily Summary

Daily Weather History Graph

Daily Weather History Graph

Search for Another Location

Airport or City:

Trip Planner

Search our weather history database for the weather conditions in past years. The results will help you decide how hot, cold, wet, or windy it might be!

Date:

Astronomy

Feb. 15, 2013 Rise Set
Actual Time 7:07 AM CST 6:12 PM CST
Civil Twilight 6:42 AM CST 6:37 PM CST
Nautical Twilight 6:13 AM CST 7:05 PM CST
Astronomical Twilight 5:45 AM CST 7:34 PM CST
Moon 10:07 AM CST (2/15) 11:49 PM CST (2/15)
Length of Visible Light 11h 54m
Length of Day
11h 04m
Waxing Crescent, 30% of the Moon is Illuminated
Feb 15
Waxing Crescent
Feb 17
First Quarter
Feb 25
Full
Mar 4
Last Quarter
Mar 11
New

Hourly Weather History & Observations

Time (CST) Temp. Windchill Dew Point Humidity Pressure Visibility Wind Dir Wind Speed Gust Speed Precip Events Conditions
12:53 AM 48.0 °F - 35.1 °F 61% 30.11 in 10.0 mi SSE 3.5 mph - N/A   Clear
1:53 AM 46.9 °F - 37.0 °F 68% 30.12 in 10.0 mi SE 4.6 mph - N/A   Overcast
2:53 AM 46.0 °F - 37.9 °F 73% 30.13 in 10.0 mi Calm Calm - N/A   Overcast
3:53 AM 50.0 °F - 37.0 °F 61% 30.16 in 10.0 mi North 5.8 mph - N/A   Overcast
4:53 AM 48.9 °F - 37.0 °F 64% 30.18 in 10.0 mi NNE 12.7 mph 19.6 mph N/A   Overcast
5:53 AM 48.9 °F - 36.0 °F 61% 30.22 in 10.0 mi North 11.5 mph - N/A   Overcast
6:53 AM 48.9 °F - 35.1 °F 59% 30.25 in 10.0 mi NNE 9.2 mph - N/A   Overcast
7:53 AM 48.0 °F - 35.1 °F 61% 30.27 in 10.0 mi NNE 8.1 mph - N/A   Overcast
8:53 AM 50.0 °F - 36.0 °F 59% 30.30 in 10.0 mi NNE 11.5 mph - N/A   Mostly Cloudy
9:53 AM 50.0 °F - 35.1 °F 57% 30.31 in 9.0 mi NNE 16.1 mph 26.5 mph N/A   Overcast
10:53 AM 48.9 °F - 36.0 °F 61% 30.33 in 10.0 mi NNE 11.5 mph 19.6 mph N/A   Overcast
11:53 AM 48.9 °F - 37.0 °F 64% 30.34 in 10.0 mi North 13.8 mph 18.4 mph N/A   Overcast
12:53 PM 52.0 °F - 35.1 °F 53% 30.32 in 10.0 mi NNE 13.8 mph 20.7 mph N/A   Overcast
1:53 PM 51.1 °F - 33.1 °F 50% 30.30 in 10.0 mi NNE 11.5 mph 19.6 mph N/A   Overcast
2:53 PM 50.0 °F - 32.0 °F 50% 30.30 in 10.0 mi North 13.8 mph 20.7 mph N/A   Overcast
3:53 PM 46.9 °F - 27.0 °F 46% 30.30 in 10.0 mi North 13.8 mph - N/A   Overcast
4:53 PM 46.9 °F - 28.0 °F 48% 30.31 in 10.0 mi North 8.1 mph - N/A   Overcast
5:53 PM 46.9 °F - 28.0 °F 48% 30.31 in 10.0 mi North 3.5 mph - N/A   Mostly Cloudy
6:53 PM 46.0 °F 43.9 °F 30.0 °F 54% 30.33 in 10.0 mi NNW 4.6 mph - N/A   Overcast
7:53 PM 46.9 °F - 23.0 °F 39% 30.36 in 10.0 mi North 9.2 mph 18.4 mph N/A   Overcast
8:53 PM 45.0 °F 41.8 °F 24.1 °F 44% 30.38 in 10.0 mi North 5.8 mph - N/A   Scattered Clouds
9:53 PM 43.0 °F 39.5 °F 24.1 °F 47% 30.39 in 10.0 mi North 5.8 mph - N/A   Clear
10:53 PM 39.9 °F 35.8 °F 25.0 °F 55% 30.40 in 10.0 mi North 5.8 mph - N/A   Clear
11:53 PM 37.0 °F 34.5 °F 25.0 °F 62% 30.39 in 10.0 mi NNW 3.5 mph - N/A   Clear